Location: Marcé
(47.5801°N, 0.3280°W)
Time: 18:27:06
(UTC+01:00)

Vanguard 2 Rocket - Pass Details

Date: 10 December 2021
Orbit: 553 x 3325 km, 32.9° (Epoch: 23 January)

Event Time Altitude Azimuth Distance (km) Brightness Sun altitude
Rises 19:20:43 0° 241° (WSW) 3,080 11.0 -21.1°
Reaches altitude 10° 19:23:14 10° 225° (SW) 2,383 9.8 -21.5°
Maximum altitude 19:27:29 22° 175° (S) 2,075 8.7 -22.2°
Enters shadow 19:31:53 14° 136° (SE) 3,020 9.2 -22.9°
Drops below altitude 10° 19:33:31 10° 129° (SE) 3,514 - -23.2°
Sets 19:38:14 0° 117° (ESE) 5,041 - -24.0°
